Blackwell, OK

1:20 PM CDT on April 26, 2017 (GMT -0500)
Blackwell

Weather History for KBKN - January, 2012

Change the Weather History Date:

Wednesday, January 18, 2012

  Actual Average (KPNC) Record (KPNC)
Temperature  
Mean Temperature 28 °F -  
Max Temperature 42 °F 50 °F 72 °F (2015)
Min Temperature 15 °F 27 °F 4 °F (1970)
Degree Days  
Heating Degree Days 36    
Moisture  
Dew Point 15 °F    
Average Humidity 61    
Maximum Humidity 80    
Minimum Humidity 33    
Precipitation  
Precipitation 0.00 in - - ()
Sea Level Pressure  
Sea Level Pressure 30.16 in    
Wind  
Wind Speed 7 mph (South)    
Max Wind Speed 18 mph    
Max Gust Speed 24 mph    
Visibility 10 miles    
Events      
Averages and records for this station are not official NWS values.
T = Trace of Precipitation, MM = Missing Value Source: NWS Daily Summary

Daily Weather History Graph

Daily Weather History Graph

Search for Another Location

Airport or City:

Trip Planner

Search our weather history database for the weather conditions in past years. The results will help you decide how hot, cold, wet, or windy it might be!

Date:

Astronomy

Jan. 18, 2012 Rise Set
Actual Time 7:40 AM CST 5:39 PM CST
Civil Twilight 7:12 AM CST 6:07 PM CST
Nautical Twilight 6:40 AM CST 6:39 PM CST
Astronomical Twilight 6:09 AM CST 7:10 PM CST
Moon 3:10 AM CST (1/18) 1:20 PM CST (1/18)
Length of Visible Light 10h 55m
Length of Day
9h 59m
Waning Crescent, 24% of the Moon is Illuminated
Jan 18
Waning Crescent
Jan 23
New
Jan 30
First Quarter
Feb 7
Full
Feb 14
Last Quarter

Hourly Weather History & Observations

Time (CST) Temp. Windchill Dew Point Humidity Pressure Visibility Wind Dir Wind Speed Gust Speed Precip Events Conditions
12:15 AM 17.6 °F 9.3 °F 10.4 °F 73% 30.37 in 10.0 mi NNE 5.8 mph - N/A   Clear
12:35 AM 15.8 °F - 10.4 °F 79% 30.36 in 10.0 mi Calm Calm - N/A   Clear
1:15 AM 15.8 °F 8.6 °F 8.6 °F 73% 30.33 in 10.0 mi NNE 4.6 mph - N/A   Clear
1:35 AM 15.8 °F - 10.4 °F 79% 30.33 in 10.0 mi Calm Calm - N/A   Clear
1:55 AM 15.8 °F - 10.4 °F 79% 30.33 in 10.0 mi Calm Calm - N/A   Clear
2:15 AM 15.8 °F - 10.4 °F 79% 30.33 in 10.0 mi Calm Calm - N/A   Clear
2:35 AM 15.8 °F 10.2 °F 10.4 °F 79% 30.32 in 10.0 mi SE 3.5 mph - N/A   Clear
2:55 AM 15.8 °F - 10.4 °F 79% 30.32 in 10.0 mi Calm Calm - N/A   Clear
3:15 AM 15.8 °F 8.6 °F 10.4 °F 79% 30.31 in 10.0 mi SE 4.6 mph - N/A   Clear
3:35 AM 17.6 °F 10.7 °F 12.2 °F 79% 30.30 in 10.0 mi SE 4.6 mph - N/A   Clear
3:55 AM 17.6 °F 9.3 °F 10.4 °F 73% 30.30 in 10.0 mi SSE 5.8 mph - N/A   Clear
4:15 AM 17.6 °F 10.7 °F 12.2 °F 79% 30.30 in 10.0 mi South 4.6 mph - N/A   Clear
4:35 AM 17.6 °F 10.7 °F 10.4 °F 73% 30.29 in 10.0 mi SSE 4.6 mph - N/A   Clear
4:55 AM 17.6 °F 12.3 °F 10.4 °F 73% 30.29 in 10.0 mi ESE 3.5 mph - N/A   Clear
5:15 AM 17.6 °F 10.7 °F 10.4 °F 73% 30.28 in 10.0 mi SSE 4.6 mph - N/A   Clear
5:35 AM 17.6 °F 8.2 °F 12.2 °F 79% 30.26 in 10.0 mi SSE 6.9 mph - N/A   Partly Cloudy
6:15 AM 17.6 °F 10.7 °F 12.2 °F 79% 30.26 in 10.0 mi SSE 4.6 mph - N/A   Partly Cloudy
6:35 AM 17.6 °F 7.3 °F 10.4 °F 73% 30.26 in 10.0 mi SSE 8.1 mph - N/A   Clear
6:55 AM 17.6 °F 12.3 °F 12.2 °F 79% 30.27 in 10.0 mi ESE 3.5 mph - N/A   Clear
7:15 AM 17.6 °F 12.3 °F 12.2 °F 79% 30.26 in 10.0 mi ESE 3.5 mph - N/A   Clear
7:35 AM 17.6 °F 8.2 °F 12.2 °F 79% 30.25 in 10.0 mi SSE 6.9 mph - N/A   Clear
7:55 AM 19.4 °F 11.5 °F 14.0 °F 80% 30.24 in 10.0 mi SSE 5.8 mph - N/A   Clear
8:15 AM 19.4 °F 11.5 °F 14.0 °F 80% 30.25 in 10.0 mi SSE 5.8 mph - N/A   Clear
8:35 AM 19.4 °F 9.5 °F 14.0 °F 80% 30.24 in 10.0 mi South 8.1 mph - N/A   Clear
8:55 AM 21.2 °F 10.1 °F 15.8 °F 80% 30.24 in 10.0 mi South 10.4 mph - N/A   Clear
9:15 AM 23.0 °F 18.4 °F 15.8 °F 74% 30.26 in 10.0 mi SSE 3.5 mph - N/A   Clear
9:35 AM 24.8 °F - 15.8 °F 69% 30.26 in 10.0 mi Calm Calm - N/A   Clear
9:55 AM 26.6 °F 16.8 °F 17.6 °F 69% 30.24 in 10.0 mi South 10.4 mph - N/A   Clear
10:15 AM 32.0 °F 21.2 °F 19.4 °F 60% 30.24 in 10.0 mi South 16.1 mph - N/A   Clear
10:35 AM 32.0 °F 20.8 °F 15.8 °F 51% 30.23 in 10.0 mi SSW 17.3 mph - N/A   Clear
10:55 AM 33.8 °F 23.5 °F 15.8 °F 48% 30.22 in 10.0 mi SSW 16.1 mph - N/A   Clear
11:35 AM 33.8 °F 23.9 °F 15.8 °F 48% 30.18 in 10.0 mi SSW 15.0 mph 21.9 mph N/A   Clear
11:55 AM 35.6 °F 25.5 °F 15.8 °F 44% 30.16 in 10.0 mi South 17.3 mph - N/A   Clear
12:15 PM 35.6 °F 26.2 °F 15.8 °F 44% 30.14 in 10.0 mi South 15.0 mph - N/A   Clear
12:35 PM 37.4 °F 27.5 °F 15.8 °F 41% 30.13 in 10.0 mi SSW 18.4 mph - N/A   Clear
1:15 PM 41.0 °F 32.2 °F 14.0 °F 33% 30.09 in 10.0 mi SSW 18.4 mph 24.2 mph N/A   Clear
1:35 PM 39.2 °F 30.8 °F 15.8 °F 39% 30.09 in 10.0 mi SSW 15.0 mph 20.7 mph N/A   Clear
1:55 PM 41.0 °F 32.5 °F 15.8 °F 36% 30.07 in 10.0 mi SSW 17.3 mph 20.7 mph N/A   Clear
2:15 PM 41.0 °F 32.8 °F 15.8 °F 36% 30.05 in 10.0 mi SW 16.1 mph - N/A   Clear
2:35 PM 41.0 °F 32.5 °F 15.8 °F 36% 30.04 in 10.0 mi SSW 17.3 mph - N/A   Clear
2:55 PM 42.8 °F 35.4 °F 15.8 °F 34% 30.03 in 10.0 mi SSW 15.0 mph - N/A   Clear
3:15 PM 42.8 °F 35.4 °F 15.8 °F 34% 30.03 in 10.0 mi SSW 15.0 mph - N/A   Clear
3:35 PM 42.8 °F 35.4 °F 17.6 °F 36% 30.02 in 10.0 mi SSW 15.0 mph 18.4 mph N/A   Clear
3:55 PM 42.8 °F 35.8 °F 17.6 °F 36% 30.01 in 10.0 mi SSW 13.8 mph - N/A   Clear
4:15 PM 42.8 °F 35.8 °F 17.6 °F 36% 30.01 in 10.0 mi SSW 13.8 mph - N/A   Clear
4:55 PM 41.0 °F 34.7 °F 19.4 °F 42% 29.98 in 10.0 mi SSW 10.4 mph - N/A   Clear
5:15 PM 41.0 °F 34.7 °F 19.4 °F 42% 29.98 in 10.0 mi South 10.4 mph - N/A   Clear
5:35 PM 37.4 °F 31.4 °F 19.4 °F 48% 29.98 in 10.0 mi South 8.1 mph - N/A   Clear
6:15 PM 33.8 °F 27.0 °F 19.4 °F 56% 29.99 in 10.0 mi SSW 8.1 mph - N/A   Clear
6:35 PM 32.0 °F 24.8 °F 19.4 °F 60% 29.98 in 10.0 mi South 8.1 mph - N/A   Clear
6:55 PM 32.0 °F 24.2 °F 19.4 °F 60% 29.97 in 10.0 mi South 9.2 mph - N/A   Clear
7:15 PM 33.8 °F 27.7 °F 19.4 °F 56% 29.97 in 10.0 mi SSE 6.9 mph - N/A   Clear
7:35 PM 32.0 °F 25.6 °F 19.4 °F 60% 29.97 in 10.0 mi South 6.9 mph - N/A   Clear
7:55 PM 32.0 °F 27.5 °F 19.4 °F 60% 29.96 in 10.0 mi South 4.6 mph - N/A   Clear
8:15 PM 32.0 °F 25.6 °F 19.4 °F 60% 29.95 in 10.0 mi SSE 6.9 mph - N/A   Clear
8:35 PM 32.0 °F 24.8 °F 19.4 °F 60% 29.94 in 10.0 mi SSE 8.1 mph - N/A   Clear
8:55 PM 32.0 °F 24.8 °F 19.4 °F 60% 29.93 in 10.0 mi South 8.1 mph - N/A   Clear
9:15 PM 32.0 °F 24.8 °F 19.4 °F 60% 29.94 in 10.0 mi South 8.1 mph - N/A   Clear
9:35 PM 30.2 °F 24.3 °F 19.4 °F 64% 29.93 in 10.0 mi South 5.8 mph - N/A   Clear
9:55 PM 30.2 °F 23.4 °F 19.4 °F 64% 29.93 in 10.0 mi SSE 6.9 mph - N/A   Clear
10:15 PM 30.2 °F 22.6 °F 19.4 °F 64% 29.92 in 10.0 mi SSE 8.1 mph - N/A   Clear
10:35 PM 30.2 °F 22.6 °F 19.4 °F 64% 29.90 in 10.0 mi SSE 8.1 mph - N/A   Clear
10:55 PM 28.4 °F 22.2 °F 19.4 °F 69% 29.90 in 10.0 mi SSE 5.8 mph - N/A   Clear
11:15 PM 30.2 °F 23.4 °F 21.2 °F 69% 29.88 in 10.0 mi SSE 6.9 mph - N/A   Clear
11:35 PM 28.4 °F 21.2 °F 21.2 °F 74% 29.88 in 10.0 mi SE 6.9 mph - N/A   Clear
11:55 PM 30.2 °F 24.3 °F 21.2 °F 69% 29.87 in 10.0 mi SE 5.8 mph - N/A   Clear